[[{"header":{"parameterUnit":"m.s-1","parameterCategory":1,"la1":30.2991,"la2":30.254,"lo1":-89.0895,"lo2":-89.0444,"dy":0.0017,"dx":0.0017,"nx":28,"ny":28,"refTime":"2023-07-30T21:00:00:Z","depth":0,"parameterNumber":2,"parameterNumberName":"U-component_of_WINDS"},"data":[0,0,0,0,0,0,0,0,0,0,0,0,0,0,0,0,0,0,0,0,0,0,0,0,0,0,0,0,0,0,0,0,0,0,0,0,0,0,0,0,0,0,0,0,0,0,0,0,0,0,0,0,0,0,0,0,0,0,1.4253,1.4253,0,1.4215,1.4215,1.4214,1.412,1.4118,1.4116,1.4114,1.4078,1.4079,1.408,0,0,0,0,0,0,0,0,0,0,0,0,0,1.4247,1.4247,1.4253,1.4253,1.4253,1.4215,1.4215,1.4214,1.412,1.4118,1.4115,1.4113,1.4078,1.4079,1.408,0,0,0,0,0,0,0,0,0,0,0,0,0,1.4233,1.4247,1.4254,1.4201,1.4196,1.4215,1.4215,1.4214,1.4121,1.4118,1.4115,1.4112,1.4077,1.4079,1.408,1.4148,0,0,1.4084,1.4085,0,0,0,0,0,0,0,0,1.4234,1.4234,1.4209,1.4205,1.4199,1.4169,1.4199,1.4192,1.4122,1.415,1.4114,1.4111,1.4111,1.4109,1.4109,1.4146,1.4145,1.4084,1.4085,1.4086,1.4086,0,0,0,0,0,0,0,1.4235,1.4235,1.4238,1.4209,1.4203,1.418,1.4175,1.4197,1.4148,1.4147,1.414,1.4136,1.4108,1.4108,1.4107,1.4144,1.4084,1.4085,1.4086,1.4087,1.4234,1.4237,0,0,0,0,0,0,1.4243,1.4236,1.424,1.4237,1.4209,1.4182,1.4177,1.4182,1.4147,1.4139,1.4139,1.4132,1.4107,1.4106,1.4106,1.4182,1.4086,1.4087,1.4088,1.4231,1.4235,1.4238,0,0,0,0,0,0,1.4244,1.4245,1.4241,1.4235,1.4232,1.4186,1.4192,1.4183,1.4183,1.4141,1.4132,1.4148,1.4105,1.4104,1.4138,1.4179,1.4087,1.4089,1.4227,1.4232,1.4236,1.4336,0,0,0,0,0,0,1.4244,1.4245,1.427,1.4236,1.4233,1.4274,1.4195,1.4184,1.4185,1.4176,1.4147,1.414,1.4102,1.4136,1.4139,1.418,1.409,1.4223,1.4229,1.4235,1.4329,1.4343,1.4356,0,0,0,0,0,1.4244,1.4301,1.4272,1.4273,1.4264,1.4276,1.4275,1.4229,1.4189,1.4214,1.4187,1.4141,1.4174,1.414,1.4143,1.4184,1.4221,1.4228,1.4234,1.4323,1.4341,1.4356,0,0,0,0,0,0,1.4343,1.4296,1.4263,1.4311,1.4298,1.426,1.429,1.425,1.4249,1.4241,1.4185,1.418,1.4221,1.4206,1.4169,1.4248,1.419,1.4198,1.4256,1.4273,1.4286,1.4289,1.4091,0,0,0,0,0,1.437,1.4384,1.4342,1.4388,1.4383,1.4338,1.4342,1.4308,1.4293,1.4287,1.4263,1.4251,1.4258,1.4265,1.427,1.4326,1.4318,1.4356,1.4369,1.4381,1.4388,1.4416,1.4432,1.4261,1.4261,1.4261,0,0,1.4427,1.4403,1.4415,1.4407,1.4393,1.4409,1.4334,1.4354,1.4365,1.4291,1.432,1.4302,1.4285,1.433,1.4349,1.4319,1.4434,1.439,1.4399,1.44,1.4425,1.4441,1.4455,1.4266,1.4265,1.4264,0,0,1.4538,1.4522,1.4557,1.4544,1.4524,1.4493,1.4502,1.447,1.4454,1.4483,1.4427,1.4439,1.4454,1.4444,1.444,1.4546,1.4503,1.4549,1.4621,1.4648,1.4661,1.4673,1.471,1.4724,1.4557,1.4557,1.4557,0,1.4612,1.4632,1.4581,1.4604,1.4602,1.4533,1.4569,1.4559,1.4542,1.4543,1.4509,1.4524,1.4508,1.4549,1.4575,1.4575,1.4583,1.4552,1.4663,1.4675,1.4685,1.4719,1.4734,1.4562,1.4562,1.4561,1.4561,0,1.4723,1.4738,1.477,1.4753,1.4754,1.4784,1.4737,1.4745,1.471,1.4683,1.4713,1.4691,1.4689,1.4696,1.4664,1.4733,1.4715,1.4673,1.4614,1.4708,1.4739,1.4752,1.4571,1.4569,1.4567,1.4565,0,0,1.4897,1.485,1.4862,1.4853,1.4824,1.4835,1.4861,1.4858,1.4866,1.4856,1.4876,1.4889,1.485,1.4846,1.4812,1.4836,1.492,1.4791,1.479,1.4815,1.4993,1.5025,1.5041,1.4891,1.4893,1.4895,1.4995,0,1.5001,1.5042,1.4996,1.5046,1.5059,1.4993,1.5016,1.5001,1.4976,1.4984,1.4957,1.4966,1.4914,1.4911,1.4932,1.4905,1.4955,1.4897,1.491,1.4911,1.4916,1.5057,1.5091,1.5186,1.5007,1.5009,1.501,0,1.5128,1.5122,1.5174,1.514,1.5144,1.5165,1.5157,1.5165,1.5147,1.5127,1.5122,1.508,1.5103,1.5045,1.5076,1.5038,1.504,1.5028,1.503,1.503,1.4966,1.506,1.5215,1.5229,1.5029,1.5028,1.5026,0,1.5249,1.5254,1.5285,1.5279,1.5241,1.5257,1.5242,1.522,1.5221,1.5215,1.5215,1.5213,1.5211,1.5211,1.5169,1.513,1.5205,1.5144,1.5189,1.519,1.5208,1.5208,1.5365,1.521,1.521,1.521,1.521,0,1.5369,1.5403,1.5338,1.5357,1.5393,1.534,1.5377,1.5355,1.5336,1.535,1.5294,1.5309,1.5252,1.5261,1.5228,1.5259,1.5259,1.5244,1.5234,1.5248,1.525,1.5249,1.5241,1.5213,1.5213,1.5212,1.5211,0,1.5511,1.5468,1.5497,1.5458,1.5449,1.5477,1.5444,1.546,1.5431,1.5449,1.545,1.5405,1.5412,1.537,1.537,1.5348,1.5394,1.5374,1.54,1.5394,1.5441,1.5437,1.5603,1.5622,1.5456,1.5458,1.5459,0,1.559,1.5615,1.5577,1.5582,1.5569,1.5578,1.5577,1.5526,1.5528,1.5508,1.5527,1.5528,1.5527,1.5542,1.5509,1.5509,1.5488,1.5546,1.5488,1.55,1.5488,1.5487,1.5489,1.5558,1.5561,1.5562,1.5564,0,1.5736,1.5713,1.5715,1.5709,1.5709,1.5702,1.5692,1.5699,1.5643,1.5648,1.5654,1.5653,1.5651,1.5654,1.5647,1.5632,1.5589,1.5582,1.5592,1.5607,1.5621,1.5613,1.5433,1.5579,1.5577,1.5576,1.5575,1.5575,1.5848,1.5866,1.5842,1.5845,1.5831,1.5822,1.5835,1.5807,1.581,1.5804,1.5773,1.5785,1.5764,1.5749,1.5739,1.5747,1.5719,1.5734,1.5738,1.5743,1.5751,1.562,1.5745,1.5745,1.5744,1.5744,1.5744,0,1.5991,1.5972,1.5975,1.596,1.5963,1.592,1.5906,1.5911,1.5921,1.5905,1.5904,1.5911,1.5912,1.588,1.5877,1.589,1.5871,1.5892,1.589,1.5887,1.5776,1.5767,1.5908,1.5908,1.5907,1.5907,1.5907,1.5907,1.6065,1.6093,1.6067,1.6087,1.6067,1.6077,1.6072,1.6063,1.605,1.6059,1.606,1.6038,1.6015,1.601,1.601,1.6001,1.6002,1.603,1.6014,1.5911,1.5895,1.588,1.5871,1.6031,1.6031,1.6124,1.6125,1.6126]},{"header":{"parameterUnit":"m.s-1","parameterCategory":1,"la1":30.2991,"la2":30.254,"lo1":-89.0895,"lo2":-89.0444,"dy":0.0017,"dx":0.0017,"nx":28,"ny":28,"refTime":"2023-07-30T21:00:00:Z","depth":0,"parameterNumber":3,"parameterNumberName":"V-component_of_WINDS"},"data":[0,0,0,0,0,0,0,0,0,0,0,0,0,0,0,0,0,0,0,0,0,0,0,0,0,0,0,0,0,0,0,0,0,0,0,0,0,0,0,0,0,0,0,0,0,0,0,0,0,0,0,0,0,0,0,0,0,0,0.4797,0.4798,0,0.4816,0.4816,0.4816,0.4812,0.4812,0.4811,0.4811,0.4829,0.4829,0.483,0,0,0,0,0,0,0,0,0,0,0,0,0,0.4758,0.4759,0.4797,0.4798,0.4798,0.4815,0.4816,0.4816,0.4812,0.4812,0.4811,0.4811,0.4828,0.4829,0.483,0,0,0,0,0,0,0,0,0,0,0,0,0,0.4775,0.4759,0.4797,0.4798,0.4798,0.4815,0.4816,0.4816,0.4812,0.4811,0.4811,0.4811,0.4828,0.4829,0.483,0.4848,0,0,0.4834,0.4834,0,0,0,0,0,0,0,0,0.4774,0.4777,0.4798,0.4798,0.4798,0.4811,0.4808,0.4827,0.4812,0.4807,0.4811,0.481,0.4823,0.4825,0.4829,0.4849,0.4849,0.4834,0.4835,0.4835,0.4836,0,0,0,0,0,0,0,0.4773,0.4776,0.4805,0.4798,0.4798,0.4797,0.4799,0.4812,0.4818,0.4807,0.4807,0.4809,0.4823,0.4828,0.483,0.485,0.4834,0.4835,0.4836,0.4836,0.4883,0.4884,0,0,0,0,0,0,0.4772,0.4775,0.4804,0.4805,0.4785,0.4798,0.48,0.4807,0.4817,0.4818,0.481,0.4809,0.4826,0.4828,0.483,0.4851,0.4835,0.4836,0.4837,0.4883,0.4884,0.4884,0,0,0,0,0,0,0.4771,0.4775,0.4803,0.479,0.4794,0.4799,0.4807,0.4808,0.4813,0.4819,0.482,0.4814,0.4826,0.4828,0.4843,0.4851,0.4837,0.4838,0.4882,0.4883,0.4884,0.4892,0,0,0,0,0,0,0.477,0.4774,0.4781,0.479,0.4794,0.4817,0.4808,0.4809,0.4815,0.4814,0.4823,0.4824,0.4826,0.4842,0.4844,0.4853,0.4839,0.4882,0.4883,0.4884,0.4891,0.4893,0.4895,0,0,0,0,0,0.4769,0.4783,0.4782,0.4785,0.4803,0.4817,0.4819,0.4821,0.4816,0.4823,0.4826,0.4824,0.485,0.4843,0.4846,0.4855,0.4881,0.4882,0.4883,0.489,0.4893,0.4895,0,0,0,0,0,0,0.4775,0.4784,0.4783,0.4801,0.4808,0.4816,0.4825,0.4824,0.4833,0.4832,0.4833,0.4835,0.485,0.4854,0.4846,0.4872,0.4865,0.4867,0.4869,0.4871,0.4873,0.4871,0.484,0,0,0,0,0,0.4778,0.4789,0.4797,0.4812,0.4815,0.482,0.4826,0.4826,0.4834,0.4837,0.4842,0.4849,0.4859,0.4865,0.4874,0.4892,0.4893,0.4899,0.4901,0.4902,0.4904,0.4912,0.4915,0.4888,0.4888,0.4888,0,0,0.4786,0.4792,0.4799,0.4813,0.4819,0.4829,0.4822,0.4834,0.4842,0.4839,0.4853,0.4857,0.4865,0.4881,0.4888,0.4884,0.4912,0.4904,0.4905,0.4906,0.4914,0.4916,0.4919,0.4889,0.4889,0.4889,0,0,0.4804,0.4811,0.4823,0.4829,0.4838,0.4841,0.4844,0.4852,0.4854,0.4869,0.4866,0.4875,0.4892,0.4898,0.4903,0.4922,0.492,0.4925,0.4935,0.4943,0.4945,0.4947,0.4953,0.4956,0.4927,0.4927,0.4927,0,0.4812,0.4829,0.483,0.4842,0.4848,0.4845,0.4858,0.4863,0.4875,0.4879,0.4875,0.4895,0.4901,0.4917,0.4922,0.4926,0.4929,0.4924,0.4945,0.4947,0.4949,0.4955,0.4957,0.4928,0.4928,0.4927,0.4927,0,0.4837,0.4849,0.4858,0.4869,0.4876,0.4888,0.489,0.4897,0.4897,0.49,0.4914,0.492,0.493,0.4934,0.4934,0.4951,0.4948,0.4945,0.4937,0.4952,0.4957,0.496,0.4928,0.4928,0.4928,0.4928,0,0,0.4861,0.4872,0.4875,0.488,0.4889,0.4897,0.4909,0.4919,0.4924,0.4932,0.4941,0.4955,0.4952,0.4957,0.4958,0.4965,0.4979,0.496,0.4961,0.4963,0.4997,0.4999,0.5002,0.4978,0.4978,0.4979,0.4996,0,0.488,0.4901,0.4902,0.492,0.493,0.4928,0.4938,0.4944,0.4947,0.4955,0.4958,0.4968,0.4963,0.4966,0.4973,0.4976,0.4986,0.4975,0.4986,0.4986,0.4984,0.5005,0.5008,0.5024,0.4998,0.4999,0.4999,0,0.4905,0.4913,0.4933,0.494,0.4944,0.4953,0.4961,0.497,0.4976,0.4978,0.4984,0.4983,0.4994,0.4987,0.5002,0.4994,0.4998,0.5001,0.5001,0.5002,0.4993,0.5006,0.5029,0.5032,0.5003,0.5003,0.5002,0,0.4919,0.4935,0.4949,0.4953,0.4962,0.4968,0.4971,0.4978,0.4983,0.4991,0.4994,0.5003,0.5008,0.5014,0.5016,0.501,0.503,0.5023,0.5031,0.5031,0.5036,0.5035,0.5059,0.5039,0.5039,0.5039,0.5039,0,0.494,0.4952,0.4955,0.4964,0.4976,0.4978,0.499,0.4993,0.4999,0.5007,0.5006,0.5014,0.5015,0.5023,0.5024,0.5036,0.5038,0.5039,0.5039,0.5039,0.5039,0.5042,0.504,0.504,0.504,0.5039,0.5039,0,0.4959,0.4961,0.4976,0.4982,0.4984,0.4993,0.4999,0.5007,0.5009,0.5019,0.5022,0.5026,0.5035,0.5037,0.5048,0.5048,0.5062,0.5061,0.506,0.506,0.5067,0.5066,0.5094,0.5097,0.5075,0.5076,0.5076,0,0.4971,0.498,0.4988,0.4994,0.4998,0.5007,0.5012,0.5014,0.5019,0.5027,0.5034,0.5043,0.505,0.5065,0.5068,0.5076,0.5075,0.5084,0.5076,0.5076,0.5075,0.5074,0.5074,0.5086,0.5086,0.5086,0.5086,0,0.4994,0.4995,0.5003,0.5011,0.5018,0.5025,0.5031,0.5036,0.5038,0.5044,0.5054,0.5059,0.507,0.5079,0.5087,0.509,0.5088,0.5089,0.5091,0.5091,0.5089,0.5089,0.5063,0.5088,0.5088,0.5088,0.5088,0.5087,0.5009,0.5017,0.5023,0.5032,0.5037,0.5043,0.505,0.5053,0.5061,0.507,0.5071,0.5081,0.5086,0.5097,0.5101,0.5108,0.5105,0.5109,0.5109,0.511,0.5111,0.5088,0.511,0.511,0.511,0.5109,0.5109,0,0.5031,0.5035,0.5043,0.5052,0.5059,0.5057,0.5064,0.5069,0.5078,0.5084,0.5091,0.5101,0.511,0.5113,0.5121,0.5126,0.5126,0.5128,0.5128,0.5129,0.5113,0.511,0.5129,0.5129,0.5129,0.5129,0.5129,0.5129,0.5043,0.5056,0.5057,0.5071,0.5075,0.5085,0.5089,0.5094,0.5099,0.511,0.5117,0.5119,0.5124,0.5132,0.5139,0.514,0.5143,0.5146,0.5146,0.5132,0.513,0.5128,0.5125,0.5147,0.5147,0.5161,0.5161,0.5162]}]]